Location: Izdebno
(52.6670°N, 16.2170°E)
Time: 23:21:34
(UTC+02:00)

A-11 Canister half - Pass Details

Date: 23 February 2024
Orbit: 1524 x 1683 km, 47.3° (Epoch: 28 April)

Event Time Altitude Azimuth Distance (km) Brightness Sun altitude
Exits shadow 04:52:33 18° 225° (SW) 3,084 10.1 -19.5°
Drops below altitude 10° 04:57:51 10° 190° (S) 3,723 10.8 -18.7°
Sets 05:02:08 0° 173° (S) 4,727 11.6 -18.0°
